Weather History for Cando, ND

Change the Weather History Date:

Monday, December 9, 2013

  Actual Average (KDVL) Record (KDVL)
Temperature  
Mean Temperature -8 °F -  
Max Temperature 0 °F 22 °F 50 °F (1974)
Min Temperature -16 °F 8 °F -22 °F (1948)
Degree Days  
Heating Degree Days 73    
Moisture  
Dew Point -14 °F    
Average Humidity 78    
Maximum Humidity 85    
Minimum Humidity 70    
Precipitation  
Precipitation 0.00 in - - ()
Sea Level Pressure  
Sea Level Pressure 29.84 in    
Wind  
Wind Speed 12 mph (WSW)    
Max Wind Speed 18 mph    
Max Gust Speed 20 mph    
Visibility 8 miles    
Events Snow    
Averages and records for this station are not official NWS values.
T = Trace of Precipitation, MM = Missing Value Source: NWS Daily Summary

Daily Weather History Graph

Daily Weather History Graph

Search for Another Location

Airport:

Trip Planner

Search our weather history database for the weather conditions in past years. The results will help you decide how hot, cold, wet, or windy it might be!

Date:

Astronomy

Dec. 09, 2013 Rise Set
Actual Time 8:17 AM CST 4:41 PM CST
Civil Twilight 7:40 AM CST 5:18 PM CST
Nautical Twilight 7:00 AM CST 5:58 PM CST
Astronomical Twilight 6:22 AM CST 6:36 PM CST
Moon 12:42 PM CST (12/9) No Moon Set
Length of Visible Light 9h 37m
Length of Day
8h 24m
Waxing Crescent, 51% of the Moon is Illuminated
Dec 9
Waxing Crescent
Dec 17
Full
Dec 25
Last Quarter
Jan 1
New
Jan 7
First Quarter

Hourly Weather History & Observations

Time (CST) Temp. Windchill Dew Point Humidity Pressure Visibility Wind Dir Wind Speed Gust Speed Precip Events Conditions
12:15 AM -11.2 °F -34.4 °F -16.6 °F 77% 29.95 in 10.0 mi WNW 16.1 mph - N/A   Clear
12:35 AM -11.2 °F -34.4 °F -18.4 °F 70% 29.96 in 10.0 mi West 16.1 mph - N/A   Partly Cloudy
12:55 AM -13.0 °F -36.0 °F -18.4 °F 77% 29.95 in 10.0 mi West 15.0 mph - N/A   Partly Cloudy
1:15 AM -13.0 °F -33.4 °F -18.4 °F 77% 29.96 in 10.0 mi WSW 11.5 mph - N/A   Clear
1:35 AM -13.0 °F -32.4 °F -20.2 °F 70% 29.96 in 10.0 mi WSW 10.4 mph - N/A   Clear
1:55 AM -13.0 °F -31.3 °F -18.4 °F 77% 29.95 in 10.0 mi West 9.2 mph - N/A   Clear
2:15 AM -13.0 °F -32.4 °F -20.2 °F 70% 29.95 in 10.0 mi West 10.4 mph - N/A   Clear
2:35 AM -13.0 °F -36.0 °F -20.2 °F 70% 29.96 in 10.0 mi WNW 15.0 mph - N/A   Clear
2:55 AM -13.0 °F -35.2 °F -18.4 °F 77% 29.96 in 10.0 mi West 13.8 mph - N/A   Mostly Cloudy
3:15 AM -13.0 °F -36.8 °F -18.4 °F 77% 29.95 in 10.0 mi WNW 16.1 mph - N/A   Overcast
3:35 AM -13.0 °F -35.2 °F -20.2 °F 70% 29.95 in 10.0 mi West 13.8 mph - N/A   Mostly Cloudy
3:55 AM -14.8 °F -38.3 °F -20.2 °F 77% 29.95 in 10.0 mi WNW 15.0 mph - N/A   Partly Cloudy
4:15 AM -14.8 °F -39.1 °F -20.2 °F 77% 29.95 in 10.0 mi WNW 16.1 mph - N/A   Scattered Clouds
4:35 AM -14.8 °F -33.5 °F -20.2 °F 77% 29.94 in 10.0 mi West 9.2 mph - N/A   Overcast
4:55 AM -14.8 °F -35.6 °F -20.2 °F 77% 29.95 in 10.0 mi WNW 11.5 mph - N/A   Mostly Cloudy
5:15 AM -14.8 °F -38.3 °F -20.2 °F 77% 29.94 in 10.0 mi WNW 15.0 mph - N/A   Overcast
5:35 AM -14.8 °F -39.8 °F -20.2 °F 77% 29.93 in 9.0 mi WNW 17.3 mph - N/A   Overcast
5:55 AM -14.8 °F -40.5 °F -20.2 °F 77% 29.93 in 8.0 mi WNW 18.4 mph - N/A   Overcast
6:15 AM -16.6 °F -40.6 °F -20.2 °F 84% 29.93 in 8.0 mi WNW 15.0 mph - N/A   Overcast
6:35 AM -14.8 °F -39.1 °F -20.2 °F 77% 29.92 in 10.0 mi West 16.1 mph - N/A   Overcast
6:55 AM -16.6 °F -37.9 °F -20.2 °F 84% 29.92 in 5.0 mi West 11.5 mph - N/A   Haze
7:15 AM -16.6 °F -35.7 °F -22.0 °F 76% 29.91 in 7.0 mi West 9.2 mph - N/A   Overcast
7:35 AM -16.6 °F -37.9 °F -22.0 °F 76% 29.91 in 9.0 mi West 11.5 mph - N/A   Overcast
7:55 AM -16.6 °F -40.6 °F -20.2 °F 84% 29.91 in 10.0 mi West 15.0 mph - N/A   Overcast
8:15 AM -16.6 °F -39.8 °F -22.0 °F 76% 29.92 in 10.0 mi West 13.8 mph - N/A   Overcast
8:35 AM -16.6 °F -38.9 °F -22.0 °F 76% 29.92 in 10.0 mi West 12.7 mph - N/A   Mostly Cloudy
8:55 AM -16.6 °F -36.8 °F -22.0 °F 76% 29.93 in 10.0 mi West 10.4 mph - N/A   Overcast
9:15 AM -16.6 °F -35.7 °F -22.0 °F 76% 29.92 in 8.0 mi West 9.2 mph - N/A   Overcast
9:35 AM -14.8 °F -30.8 °F -20.2 °F 77% 29.92 in 9.0 mi WSW 6.9 mph - N/A   Overcast
9:55 AM -13.0 °F -31.3 °F -20.2 °F 70% 29.92 in 5.0 mi WSW 9.2 mph - N/A   Haze
10:15 AM -13.0 °F -32.4 °F -18.4 °F 77% 29.91 in 7.0 mi West 10.4 mph - N/A   Overcast
10:35 AM -11.2 °F -26.4 °F -16.6 °F 77% 29.90 in 8.0 mi SW 6.9 mph - N/A   Overcast
10:55 AM -11.2 °F -27.8 °F -16.6 °F 77% 29.89 in 10.0 mi SW 8.1 mph - N/A   Overcast
11:15 AM -9.4 °F -28.9 °F -16.6 °F 71% 29.87 in 10.0 mi WSW 11.5 mph - N/A   Overcast
11:35 AM -9.4 °F -28.9 °F -16.6 °F 71% 29.85 in 10.0 mi WSW 11.5 mph - N/A   Scattered Clouds
11:55 AM -9.4 °F -28.9 °F -14.8 °F 77% 29.83 in 10.0 mi WSW 11.5 mph - N/A   Clear
12:15 PM -7.6 °F -27.5 °F -13.0 °F 77% 29.82 in 10.0 mi WSW 12.7 mph - N/A   Clear
12:35 PM -5.8 °F -26.8 °F -13.0 °F 71% 29.81 in 10.0 mi WSW 15.0 mph - N/A   Clear
12:55 PM -4.0 °F -25.2 °F -11.2 °F 71% 29.81 in 10.0 mi WSW 16.1 mph 19.6 mph N/A   Clear
1:15 PM -4.0 °F -25.2 °F -11.2 °F 71% 29.80 in 10.0 mi SW 16.1 mph - N/A   Partly Cloudy
1:35 PM -4.0 °F -21.2 °F -11.2 °F 71% 29.78 in 10.0 mi SW 10.4 mph - N/A   Partly Cloudy
1:55 PM -4.0 °F -22.1 °F -9.4 °F 78% 29.76 in 10.0 mi SSW 11.5 mph - N/A   Clear
2:15 PM -2.2 °F -18.9 °F -9.4 °F 71% 29.74 in 10.0 mi South 10.4 mph - N/A   Scattered Clouds
2:35 PM -2.2 °F -18.9 °F -9.4 °F 71% 29.72 in 10.0 mi South 10.4 mph - N/A   Mostly Cloudy
2:55 PM -2.2 °F -18.9 °F -9.4 °F 71% 29.71 in 10.0 mi South 10.4 mph - N/A   Overcast
3:15 PM -2.2 °F -18.9 °F -9.4 °F 71% 29.71 in 10.0 mi South 10.4 mph - N/A   Overcast
3:35 PM -2.2 °F -18.0 °F -9.4 °F 71% 29.71 in 10.0 mi South 9.2 mph - N/A   Overcast
3:55 PM -2.2 °F -16.8 °F -7.6 °F 78% 29.71 in 10.0 mi South 8.1 mph - N/A   Overcast
4:15 PM -2.2 °F -18.9 °F -7.6 °F 78% 29.72 in 5.0 mi South 10.4 mph - N/A   Haze
4:35 PM -2.2 °F -16.8 °F -7.6 °F 78% 29.70 in 1.8 mi South 8.1 mph - N/A   Haze
4:55 PM -0.4 °F -13.4 °F -5.8 °F 78% 29.70 in 3.0 mi SSE 6.9 mph - N/A   Haze
5:15 PM -0.4 °F -15.7 °F -5.8 °F 78% 29.71 in 4.0 mi South 9.2 mph - N/A   Haze
5:35 PM -0.4 °F -16.7 °F -4.0 °F 85% 29.70 in 2.5 mi South 10.4 mph - N/A   Overcast
5:55 PM -0.4 °F -14.7 °F -4.0 °F 85% 29.70 in 2.5 mi South 8.1 mph - N/A   Overcast
6:15 PM -0.4 °F -12.0 °F -4.0 °F 85% 29.70 in 3.0 mi South 5.8 mph - N/A Snow Light Snow
6:35 PM -0.4 °F -12.0 °F -4.0 °F 85% 29.70 in 2.0 mi SSW 5.8 mph - N/A   Haze
6:55 PM -0.4 °F -12.0 °F -4.0 °F 85% 29.70 in 3.0 mi SSW 5.8 mph - N/A   Haze
7:15 PM -0.4 °F -8.3 °F -4.0 °F 85% 29.70 in 3.0 mi SW 3.5 mph - N/A   Haze
7:35 PM -0.4 °F - -4.0 °F 85% 29.71 in 4.0 mi Calm Calm - N/A   Haze
7:55 PM -0.4 °F -8.3 °F -4.0 °F 85% 29.72 in 8.0 mi WNW 3.5 mph - N/A   Overcast
8:15 PM -2.2 °F -15.6 °F -5.8 °F 85% 29.73 in 10.0 mi WNW 6.9 mph - N/A   Overcast
8:35 PM -2.2 °F -14.2 °F -7.6 °F 78% 29.74 in 10.0 mi NW 5.8 mph - N/A   Overcast
8:55 PM -4.0 °F -16.3 °F -9.4 °F 78% 29.74 in 9.0 mi NNW 5.8 mph - N/A   Overcast
9:15 PM -7.6 °F -22.1 °F -11.2 °F 84% 29.75 in 10.0 mi NNW 6.9 mph - N/A   Mostly Cloudy
9:35 PM -5.8 °F -21.2 °F -9.4 °F 84% 29.76 in 10.0 mi NW 8.1 mph - N/A   Mostly Cloudy
9:55 PM -9.4 °F -25.6 °F -13.0 °F 84% 29.77 in 10.0 mi NW 8.1 mph - N/A   Scattered Clouds
10:15 PM -9.4 °F -27.9 °F -13.0 °F 84% 29.78 in 10.0 mi NW 10.4 mph - N/A   Mostly Cloudy
10:35 PM -7.6 °F -22.1 °F -13.0 °F 77% 29.78 in 10.0 mi WNW 6.9 mph - N/A   Partly Cloudy
10:55 PM -11.2 °F -26.4 °F -14.8 °F 84% 29.79 in 10.0 mi WNW 6.9 mph - N/A   Clear
11:15 PM -9.4 °F -29.8 °F -13.0 °F 84% 29.81 in 10.0 mi WNW 12.7 mph - N/A   Clear
11:35 PM -7.6 °F -28.3 °F - N/A% 29.81 in 10.0 mi WNW 13.8 mph - N/A   Clear
11:55 PM -9.4 °F -29.8 °F -13.0 °F 84% 29.82 in 10.0 mi WNW 12.7 mph - N/A   Clear